Weather History for Liberal, KS

Change the Weather History Date:

Sunday, December 2, 2012

  Actual Average Record
Temperature  
Mean Temperature 50 °F -  
Max Temperature 69 °F 52 °F 77 °F (1951)
Min Temperature 30 °F 24 °F 0 °F (1985)
Degree Days  
Heating Degree Days 16    
Moisture  
Dew Point 26 °F    
Average Humidity 47    
Maximum Humidity 70    
Minimum Humidity 21    
Precipitation  
Precipitation 0.00 in - - ()
Sea Level Pressure  
Sea Level Pressure 29.93 in    
Wind  
Wind Speed 7 mph (SSW)    
Max Wind Speed 20 mph    
Max Gust Speed 25 mph    
Visibility 10 miles    
Events      
Averages and records for this station are not official NWS values.
T = Trace of Precipitation, MM = Missing Value Source: NWS Daily Summary

Daily Weather History Graph

Daily Weather History Graph

Search for Another Location

Airport:

Trip Planner

Search our weather history database for the weather conditions in past years. The results will help you decide how hot, cold, wet, or windy it might be!

Date:

Astronomy

Dec. 02, 2012 Rise Set
Actual Time 7:39 AM CST 5:26 PM CST
Civil Twilight 7:11 AM CST 5:55 PM CST
Nautical Twilight 6:39 AM CST 6:27 PM CST
Astronomical Twilight 6:07 AM CST 6:59 PM CST
Moon 9:13 PM CST (12/2) 10:32 AM CST (12/2)
Length of Visible Light 10h 44m
Length of Day
9h 46m
Waning Gibbous, 85% of the Moon is Illuminated
Dec 2
Waning Gibbous
Dec 6
Last Quarter
Dec 13
New
Dec 19
First Quarter
Dec 28
Full

Hourly Weather History & Observations

Time (CST) Temp. Windchill Dew Point Humidity Pressure Visibility Wind Dir Wind Speed Gust Speed Precip Events Conditions
12:15 AM 35.6 °F 31.7 °F 24.8 °F 65% 30.02 in 10.0 mi NW 4.6 mph - N/A   Clear
12:35 AM 37.4 °F - 24.8 °F 60% 30.01 in 10.0 mi Calm Calm - N/A   Clear
12:55 AM 35.6 °F - 23.0 °F 60% 30.02 in 10.0 mi Calm Calm - N/A   Clear
1:15 AM 33.8 °F 26.4 °F 21.2 °F 60% 30.02 in 10.0 mi West 9.2 mph - N/A   Clear
1:35 AM 35.6 °F 29.9 °F 24.8 °F 65% 30.02 in 10.0 mi West 6.9 mph - N/A   Clear
1:55 AM 35.6 °F 29.2 °F 24.8 °F 65% 30.03 in 10.0 mi West 8.1 mph - N/A   Clear
2:15 AM 35.6 °F 28.6 °F 24.8 °F 65% 30.02 in 10.0 mi West 9.2 mph - N/A   Clear
2:35 AM 35.6 °F 29.9 °F 24.8 °F 65% 30.02 in 10.0 mi WNW 6.9 mph - N/A   Clear
2:55 AM 37.4 °F 32.1 °F 26.6 °F 65% 30.02 in 10.0 mi West 6.9 mph - N/A   Clear
3:15 AM 37.4 °F 31.4 °F 26.6 °F 65% 30.02 in 10.0 mi West 8.1 mph - N/A   Clear
3:35 AM 37.4 °F 33.8 °F 26.6 °F 65% 30.02 in 10.0 mi WNW 4.6 mph - N/A   Clear
3:55 AM 37.4 °F 31.4 °F 24.8 °F 60% 30.02 in 10.0 mi West 8.1 mph - N/A   Clear
4:15 AM 35.6 °F 29.9 °F 24.8 °F 65% 30.01 in 10.0 mi WNW 6.9 mph - N/A   Clear
4:35 AM 35.6 °F 30.7 °F 24.8 °F 65% 30.01 in 10.0 mi NW 5.8 mph - N/A   Clear
4:55 AM 33.8 °F 30.8 °F 23.0 °F 65% 30.01 in 10.0 mi NW 3.5 mph - N/A   Clear
5:15 AM 33.8 °F 28.6 °F 23.0 °F 65% 30.01 in 10.0 mi WNW 5.8 mph - N/A   Clear
5:35 AM 33.8 °F 29.6 °F 23.0 °F 65% 30.01 in 10.0 mi NW 4.6 mph - N/A   Clear
5:55 AM 33.8 °F 29.6 °F 24.8 °F 70% 30.01 in 10.0 mi NW 4.6 mph - N/A   Clear
6:15 AM 33.8 °F 29.6 °F 21.2 °F 60% 30.02 in 10.0 mi NW 4.6 mph - N/A   Clear
6:35 AM 32.0 °F 27.5 °F 21.2 °F 64% 30.02 in 10.0 mi NW 4.6 mph - N/A   Clear
6:55 AM 32.0 °F 27.5 °F 21.2 °F 64% 30.02 in 10.0 mi NNW 4.6 mph - N/A   Clear
7:15 AM 32.0 °F 28.7 °F 21.2 °F 64% 30.03 in 10.0 mi NW 3.5 mph - N/A   Clear
7:35 AM 32.0 °F 26.4 °F 21.2 °F 64% 30.03 in 10.0 mi NNW 5.8 mph - N/A   Clear
7:55 AM 30.2 °F 24.3 °F 21.2 °F 69% 30.04 in 10.0 mi NNW 5.8 mph - N/A   Clear
8:15 AM 32.0 °F 26.4 °F 23.0 °F 69% 30.04 in 10.0 mi NW 5.8 mph - N/A   Clear
8:35 AM 33.8 °F 29.6 °F 24.8 °F 70% 30.04 in 10.0 mi WNW 4.6 mph - N/A   Clear
8:55 AM 39.2 °F 35.9 °F 28.4 °F 65% 30.04 in 10.0 mi WNW 4.6 mph - N/A   Clear
9:15 AM 42.8 °F - 30.2 °F 61% 30.04 in 10.0 mi Calm Calm - N/A   Clear
9:35 AM 44.6 °F - 32.0 °F 61% 30.05 in 10.0 mi Calm Calm - N/A   Clear
9:55 AM 48.2 °F - 33.8 °F 58% 30.05 in 10.0 mi Calm Calm - N/A   Clear
10:15 AM 51.8 °F - 33.8 °F 50% 30.05 in 10.0 mi Calm Calm - N/A   Clear
10:35 AM 51.8 °F - 35.6 °F 54% 30.04 in 10.0 mi East 3.5 mph - N/A   Clear
10:55 AM 55.4 °F - 35.6 °F 47% 30.04 in 10.0 mi ESE 4.6 mph - N/A   Clear
11:15 AM 60.8 °F - 37.4 °F 42% 30.03 in 10.0 mi SE 10.4 mph - N/A   Clear
11:35 AM 62.6 °F - 35.6 °F 37% 30.02 in 10.0 mi SE 13.8 mph - N/A   Clear
11:55 AM 62.6 °F - 33.8 °F 34% 30.01 in 10.0 mi SE 11.5 mph - N/A   Clear
12:15 PM 64.4 °F - 33.8 °F 32% 29.99 in 10.0 mi SE 10.4 mph - N/A   Clear
12:35 PM 64.4 °F - 33.8 °F 32% 29.97 in 10.0 mi SE 13.8 mph - N/A   Clear
12:55 PM 66.2 °F - 33.8 °F 30% 29.95 in 10.0 mi SE 11.5 mph - N/A   Clear
1:15 PM 66.2 °F - 32.0 °F 28% 29.94 in 10.0 mi SE 13.8 mph - N/A   Clear
1:35 PM 66.2 °F - 32.0 °F 28% 29.93 in 10.0 mi SE 13.8 mph - N/A   Clear
1:55 PM 68.0 °F - 32.0 °F 26% 29.91 in 10.0 mi SE 15.0 mph - N/A   Clear
2:15 PM 68.0 °F - 30.2 °F 24% 29.89 in 10.0 mi SE 16.1 mph - N/A   Clear
2:35 PM 69.8 °F - 30.2 °F 23% 29.87 in 10.0 mi SE 19.6 mph - N/A   Clear
3:15 PM 69.8 °F - 30.2 °F 23% 29.86 in 10.0 mi SE 18.4 mph - N/A   Clear
3:35 PM 69.8 °F - 28.4 °F 21% 29.85 in 10.0 mi SSE 18.4 mph - N/A   Clear
3:55 PM 69.8 °F - 28.4 °F 21% 29.85 in 10.0 mi South 17.3 mph 25.3 mph N/A   Clear
4:15 PM 66.2 °F - 26.6 °F 23% 29.85 in 10.0 mi South 19.6 mph 25.3 mph N/A   Clear
4:35 PM 64.4 °F - 26.6 °F 24% 29.85 in 10.0 mi South 19.6 mph - N/A   Clear
4:55 PM 62.6 °F - 24.8 °F 24% 29.85 in 10.0 mi South 13.8 mph - N/A   Clear
5:15 PM 59.0 °F - 24.8 °F 27% 29.84 in 10.0 mi South 10.4 mph - N/A   Clear
5:35 PM 53.6 °F - 23.0 °F 30% 29.84 in 10.0 mi South 9.2 mph - N/A   Clear
5:55 PM 51.8 °F - 21.2 °F 30% 29.84 in 10.0 mi South 9.2 mph - N/A   Clear
6:15 PM 48.2 °F - 21.2 °F 34% 29.83 in 10.0 mi South 8.1 mph - N/A   Clear
6:35 PM 48.2 °F - 23.0 °F 37% 29.82 in 10.0 mi South 10.4 mph - N/A   Clear
6:55 PM 48.2 °F - 23.0 °F 37% 29.81 in 10.0 mi SSE 8.1 mph - N/A   Clear
7:15 PM 44.6 °F 39.2 °F 21.2 °F 39% 29.80 in 10.0 mi South 10.4 mph - N/A   Clear
7:35 PM 46.4 °F 41.5 °F 24.8 °F 43% 29.79 in 10.0 mi SSE 10.4 mph - N/A   Clear
7:55 PM 46.4 °F 42.4 °F 21.2 °F 37% 29.78 in 10.0 mi South 8.1 mph - N/A   Clear
8:15 PM 46.4 °F 41.9 °F 21.2 °F 37% 29.78 in 10.0 mi SSE 9.2 mph - N/A   Clear
8:35 PM 42.8 °F 37.0 °F 19.4 °F 39% 29.77 in 10.0 mi South 10.4 mph - N/A   Clear
8:55 PM 44.6 °F 38.8 °F 21.2 °F 39% 29.77 in 10.0 mi South 11.5 mph - N/A   Clear
9:15 PM 42.8 °F 37.0 °F 21.2 °F 42% 29.76 in 10.0 mi South 10.4 mph - N/A   Clear
9:35 PM 42.8 °F 36.2 °F 21.2 °F 42% 29.75 in 10.0 mi South 12.7 mph - N/A   Clear
9:55 PM 42.8 °F 36.2 °F 21.2 °F 42% 29.74 in 10.0 mi South 12.7 mph - N/A   Clear
10:15 PM 46.4 °F 41.1 °F 21.2 °F 37% 29.73 in 10.0 mi South 11.5 mph - N/A   Clear
10:35 PM 44.6 °F 38.8 °F 21.2 °F 39% 29.73 in 10.0 mi South 11.5 mph - N/A   Clear
10:55 PM 44.6 °F 38.4 °F 21.2 °F 39% 29.73 in 10.0 mi South 12.7 mph - N/A   Clear
11:15 PM 50.0 °F - 24.8 °F 37% 29.72 in 10.0 mi South 13.8 mph - N/A   Clear
11:35 PM 50.0 °F - 21.2 °F 32% 29.72 in 10.0 mi SSW 16.1 mph - N/A   Clear
11:55 PM 50.0 °F - 19.4 °F 30% 29.71 in 10.0 mi SSW 15.0 mph - N/A   Clear